Starlink 36198

operational
NORAD ID: 67167 Int'l Des: 2025-303 Owner: SPXS Country: US Constellation: starlink
LEOCIRCULAR

Starlink 36198について

説明を読み込み中...

リアルタイム位置

3D地球を読み込み中...

次回通過

高度履歴

Altitude vs Time

uPlot chart will show altitude changes over time

軌道要素

1 67167C 25303E 25352.76715278 .00674420 00000+0 99777-3 0 3527
2 67167 43.0046 61.7868 0007388 288.8581 257.6077 16.03212033 14
Epoch: Dec 18, 2025 • Age: 64 hours

現在のステータス

高度 267.8 km
速度 7.75 km/s
衛星直下点 -43.01°S, 2.5°E
打ち上げ日 Dec 17, 2025
運用期間 3 days
タイプ internet

技術仕様

分類 Payload
質量 575.00 kg
乾燥質量 530.00 kg
総質量 575.00 kg
長さ 0.30 m
直径 4.10 m
スパン 29.00 m
形状 Box + pan
製造者 SPXS
バスタイプ Starlink V2MO
フェーズステータス In Orbit
所有者/国 SPXS/US

大規模コンステレーション

Loading constellations...